Regional Weather Roundup
Issued by NWS

Home | Current Version | Previous Version | Graphics & Text | Print | Product List | Glossary Off
Versions: 1 2 3 4 5 6 7 8 9 10 11 12 13 14 15 16 17 18 19 20 21 22 23 24 25 26 27 28 29 30 31 32 33 34 35 36 37 38 39 40 41 42 43 44 45 46 47 48 49 50

000
ASUS43 KMKX 290521
RWRWI

WISCONSIN REGIONAL WEATHER ROUNDUP
NATIONAL WEATHER SERVICE MILWAUKEE/SULLIVAN WI
1200 AM CDT SAT AUG 29 2015

NOTE: "FAIR" INDICATES FEW OR NO CLOUDS BELOW 12,000 FEET WITH NO
SIGNIFICANT WEATHER AND/OR OBSTRUCTIONS TO VISIBILITY.

WIZ001-002-006>008-014>016-023>028-290600-
NORTHWEST WISCONSIN

CITY           SKY/WX    TMP DP  RH WIND       PRES   REMARKS
SUPERIOR ARPT  CLEAR     65  60  85 SW9       30.00R
ASHLAND        CLEAR     64  62  93 SW10      30.01R
HAYWARD        CLEAR     61  57  87 S8        30.06R
SIREN          CLEAR     59  57  92 CALM      30.05F
CUMBERLAND     CLEAR     54  54 100 SE3       30.07S
RICE LAKE      CLEAR     55  53  94 CALM      30.09R
CHETEK         CLEAR    N/A N/A N/A CALM      30.07S
LADYSMITH      CLEAR     56  54  94 CALM      30.10R
EAU CLAIRE     CLEAR     55  53  93 NE5       30.04F
MENOMONIE      FAIR      56  55  97 CALM      30.05S
NEW RICHMOND   CLEAR     55  55  99 CALM      30.05F
OSCEOLA        CLEAR     56  56 100 CALM      30.08S
$$

WIZ003>005-009-010-017-018-290600-
NORTH CENTRAL WISCONSIN

CITY           SKY/WX    TMP DP  RH WIND       PRES   REMARKS
MANITOWISH WTR CLOUDY    62  60  94 S13       30.07R
ARBOR VITAE    CLOUDY    62  56  82 SW8       30.09R
WOODRUFF       CLOUDY    62  56  82 SW8       30.09R
RHINELANDER    CLOUDY    61  55  81 W10       30.10R
EAGLE RIVER    DRIZZLE   61  59  94 SW10G16   30.09R
LAND O LAKES   CLOUDY    64  59  86 SW8       30.07F
PHILLIPS       PTCLDY    58  57  96 S3        30.09R
TOMAHAWK       CLOUDY    59  55  87 CALM      30.09S
MEDFORD        CLEAR     56  54  95 SE5       30.08S
MERRILL        CLOUDY    59  58  96 S3        30.10R
$$

WIZ029-030-035-036-043>047-290600-
CENTRAL WISCONSIN

CITY           SKY/WX    TMP DP  RH WIND       PRES   REMARKS
WAUSAU         CLOUDY    59  54  83 S7        30.07F
MOSINEE        CLOUDY    55  55 100 SE6       30.09F
MARSHFIELD     PTCLDY    56  52  86 SE6       30.07F
STEVENS POINT  CLOUDY    55  53  93 CALM      30.09F
WAUPACA        CLOUDY    59  58  97 E3        30.10F
WAUTOMA        CLOUDY    58  58 100 E5        30.10F
WISC RAPIDS    CLOUDY    58  54  86 SE6       30.08F
CAMP DOUGLAS   CLOUDY    57  57 100 SE10      30.04F
$$

WIZ011>013-019>022-031-037>040-048>050-290600-
NORTHEAST WISCONSIN

CITY           SKY/WX    TMP DP  RH WIND       PRES   REMARKS
ANTIGO         CLOUDY    56  55  94 S7        30.10S
SHAWANO        CLOUDY    60  56  85 CALM      30.10F
OCONTO         CLOUDY    60  60 100 SW5       30.11R
STURGEON BAY   CLOUDY    61  55  82 SW10      30.13S
GREEN BAY      CLOUDY    59  55  87 SW9G18    30.13S
MANITOWOC      RAIN      60  59  96 MISG      30.14S
APPLETON       LGT RAIN  55  55 100 SE6       30.10F
CLINTONVILLE   CLOUDY    57  54  88 S6        30.10F
OSHKOSH        RAIN      57  55  93 CALM      30.12F FOG
$$

WIZ032>034-041-042-053>061-290600-
SOUTHWEST WISCONSIN

CITY           SKY/WX    TMP DP  RH WIND       PRES   REMARKS
LA CROSSE      CLOUDY    60  57  89 SE7       30.01F
SPARTA         CLOUDY    58  56  94 E7        30.04F
VIROQUA        CLOUDY    58  58 100 E7        30.03F
BOSCOBEL       LGT RAIN  63  61  93 NE6       30.01F FOG
PRAIRIE DU CHI DRIZZLE   63  61  94 E5        29.99S
PLATTEVILLE    CLOUDY    64  64  97 SE18      29.98S
$$

WIZ056-057-062-063-064-067-068-290600-
SOUTH CENTRAL WISCONSIN

CITY           SKY/WX    TMP DP  RH WIND       PRES   REMARKS
REEDSBURG      DRIZZLE   57  56  99 E6        30.06S
BARABOO/DELLS  LGT RAIN  56  55  94 E12       30.07S
LONE ROCK      RAIN      62  60  93 E3        30.04F FOG
MINERAL POINT  HVY RAIN  64  63  94 E9G18     30.01F
MADISON        LGT RAIN  60  58  92 E10       30.05F
MIDDLETON      CLOUDY    65  64  97 E7        30.05F
WATERTOWN      RAIN      59  59 100 E9        30.08R
MONROE         RAIN      63  61  94 SE17G23   30.02F
JANESVILLE     RAIN      64  63  94 SE12      30.04S
$$

WIZ051-052-058>065-066-070>072-290600-
SOUTHEAST WISCONSIN

CITY           SKY/WX    TMP DP  RH WIND       PRES   REMARKS
MILWAUKEE      LGT RAIN  63  61  93 E9        30.08F VSB 1
WAUKESHA       LGT RAIN  59  57  94 E10       30.08F
MILWAUKEE/TIMM RAIN      59  55  88 E8        30.09F
RACINE         LGT RAIN  63  61  93 E5        30.11F VSB 1
BURLINGTON     RAIN      62  60  94 E10       30.07F
KENOSHA        LGT RAIN  65  63  93 E8        30.09F FOG
FOND DU LAC    HVY RAIN  59  57  93 NE6       30.12R FOG
SHEBOYGAN      LGT RAIN  60  58  92 N6        30.11F
WEST BEND      RAIN      59  55  88 CALM      30.09F
JUNEAU         RAIN      57  56  98 NE9       30.10R
$$

LSZ147-162-290600-
LAKE SUPERIOR

STATION/POSITION TIME  TEMP    WIND        PRES    WAVE
                       AIR SEA DIR/SP/G            HT/PER
                 (UTC) (F)     (DEG/KT/KT) (MB)    (FT/S)
W MID LAKE BUOY  0450   59 56  220/ 16/ 17 1014.8R   2/ 3
DEVILS ISLAND    0500   64     210/ 13/ 16 1015.0R
PORT WING        0400   69     200/ 10/ 15 1015.6R
SAXON HARBOR     0420   67     200/  7/ 24 1015.9R
$$

LMZ867-665-643>646-290600-
LAKE MICHIGAN

STATION/POSITION TIME  TEMP    WIND        PRES    WAVE
                       AIR SEA DIR/SP/G            HT/PER
                 (UTC) (F)     (DEG/KT/KT) (MB)    (FT/S)
CHAMBERS ISLAND  0400   63     190/  8/ 14 1018.6R
S GREEN BAY BUOY 0400   63 62  230/  6/  8 1020.9
N MID LAKE BUOY  0450   63 64  220/ 16/ 19 1017.8F   2/ 5
NORTHPORT PIER   0400   64     190/  4/  6 1018.3S
SISTER BAY       0419   64     230/ 16/ 18   N/A
ALGOMA LAKESHORE 0414          260/  6/  8   N/A
SHEBOYGAN LAKESH 0500   58     350/  9/ 10 1019.8F
PORT WASHINGTON  0440   57      40/  6/  9 1019.6F
ATWATER BUOY     0500   54 48  120/  4/  4 1020.2F
MILWAUKEE LAKESH 0400   56      50/  6/  6   N/A
S MID LAKE BUOY  0450   68 68   80/ 10/ 10 1019.0F   0
KENOSHA   LAKESH 0500   59      50/  5/  7 1019.0F
$$

TC  - TEMPERATURE IN CELSIUS
VSB - VISIBILITY IN STATUTE MILES
WCI - WIND CHILL INDEX
HX  - HEAT INDEX




USA.gov is the U.S. government's official web portal to all federal, state and local government web resources and services.